Radiation Dose at Monitoring Post of Fukushima Daini Nuclear Power Station
Date,Time,MP-1(microSv/h),MP-2(microSv/h),MP-3(microSv/h),MP-4(microSv/h),MP-5(microSv/h),MP-6(microSv/h),MP-7(microSv/h),Wind Direction,Wind Velocity(m/s),Rain
2019/05/24,00:00,0.192,0.177,0.293,0.274,0.272,0.147,0.090,west-southwest,3.0,No
2019/05/24,00:10,0.192,0.175,0.294,0.277,0.273,0.147,0.090,west,2.7,No
2019/05/24,00:20,0.193,0.176,0.294,0.277,0.272,0.148,0.090,west,2.4,No
2019/05/24,00:30,0.191,0.176,0.294,0.276,0.271,0.147,0.091,west,2.1,No
2019/05/24,00:40,0.193,0.175,0.293,0.277,0.273,0.148,0.091,west,1.1,No
2019/05/24,00:50,0.192,0.176,0.293,0.276,0.270,0.147,0.090,west,1.7,No
2019/05/24,01:00,0.194,0.175,0.295,0.277,0.273,0.147,0.091,west,2.2,No
2019/05/24,01:10,0.193,0.176,0.293,0.275,0.271,0.147,0.090,west,4.0,No
2019/05/24,01:20,0.192,0.176,0.294,0.275,0.271,0.146,0.090,west,3.0,No
2019/05/24,01:30,0.193,0.175,0.294,0.277,0.271,0.148,0.090,west,3.3,No
2019/05/24,01:40,0.192,0.175,0.294,0.275,0.271,0.146,0.091,west,3.7,No
2019/05/24,01:50,0.193,0.176,0.294,0.277,0.272,0.147,0.090,west,4.0,No
2019/05/24,02:00,0.193,0.175,0.293,0.277,0.271,0.147,0.091,west,4.9,No
2019/05/24,02:10,0.190,0.175,0.293,0.276,0.273,0.147,0.090,west,4.5,No
2019/05/24,02:20,0.193,0.176,0.294,0.277,0.270,0.147,0.090,west,5.2,No
2019/05/24,02:30,0.192,0.175,0.292,0.274,0.273,0.146,0.090,west,4.8,No
2019/05/24,02:40,0.192,0.174,0.293,0.276,0.271,0.147,0.090,west,3.9,No
2019/05/24,02:50,0.193,0.176,0.294,0.275,0.272,0.147,0.090,west,4.3,No
2019/05/24,03:00,0.192,0.175,0.292,0.275,0.272,0.147,0.090,west,4.0,No
2019/05/24,03:10,0.193,0.175,0.294,0.276,0.271,0.147,0.091,west,3.7,No
2019/05/24,03:20,0.192,0.175,0.293,0.275,0.272,0.146,0.091,west-southwest,1.2,No
2019/05/24,03:30,0.192,0.175,0.293,0.275,0.270,0.148,0.091,west,3.1,No
2019/05/24,03:40,0.193,0.175,0.293,0.277,0.273,0.146,0.092,west,4.5,No
2019/05/24,03:50,0.192,0.176,0.293,0.276,0.269,0.147,0.090,west,5.9,No
2019/05/24,04:00,0.193,0.174,0.293,0.276,0.271,0.147,0.090,west,5.6,No
2019/05/24,04:10,0.192,0.175,0.294,0.276,0.271,0.146,0.090,west,5.3,No
2019/05/24,04:20,0.192,0.175,0.292,0.275,0.270,0.146,0.090,west,4.8,No
2019/05/24,04:30,0.193,0.175,0.292,0.276,0.273,0.147,0.090,west,3.1,No
2019/05/24,04:40,0.191,0.176,0.295,0.275,0.271,0.146,0.090,west-northwest,2.9,No
2019/05/24,04:50,0.193,0.175,0.293,0.276,0.271,0.147,0.091,west,2.6,No
2019/05/24,05:00,0.192,0.175,0.293,0.274,0.269,0.146,0.090,west,2.5,No
2019/05/24,05:10,0.192,0.176,0.292,0.275,0.272,0.146,0.091,west,2.7,No
2019/05/24,05:20,0.193,0.175,0.293,0.276,0.270,0.146,0.091,west-northwest,1.6,No
2019/05/24,05:30,0.192,0.175,0.293,0.274,0.273,0.146,0.091,west,3.3,No
2019/05/24,05:40,0.194,0.174,0.293,0.276,0.270,0.146,0.090,west,3.3,No
2019/05/24,05:50,0.191,0.174,0.293,0.274,0.272,0.146,0.091,west-northwest,2.8,No
2019/05/24,06:00,0.192,0.175,0.294,0.277,0.272,0.146,0.091,west-northwest,2.6,No
2019/05/24,06:10,0.191,0.174,0.294,0.273,0.269,0.146,0.090,west-northwest,4.0,No
2019/05/24,06:20,0.192,0.175,0.291,0.276,0.272,0.146,0.091,west,5.6,No
2019/05/24,06:30,0.192,0.174,0.293,0.274,0.269,0.146,0.090,west,9.5,No
2019/05/24,06:40,0.191,0.176,0.293,0.275,0.270,0.146,0.090,west,10.4,No
2019/05/24,06:50,0.191,0.174,0.294,0.274,0.270,0.146,0.090,west,10.0,No
2019/05/24,07:00,0.191,0.175,0.292,0.276,0.270,0.147,0.089,west,11.2,No
2019/05/24,07:10,0.191,0.176,0.293,0.274,0.272,0.147,0.091,west,11.8,No
2019/05/24,07:20,0.192,0.175,0.291,0.275,0.268,0.146,0.090,west,10.7,No
2019/05/24,07:30,0.192,0.175,0.293,0.275,0.272,0.148,0.090,west,10.4,No
2019/05/24,07:40,0.192,0.174,0.292,0.273,0.273,0.146,0.090,west,11.8,No
2019/05/24,07:50,0.193,0.174,0.291,0.275,0.269,0.147,0.091,west,11.5,No
2019/05/24,08:00,0.190,0.174,0.292,0.275,0.272,0.147,0.090,west,9.2,No
2019/05/24,08:10,0.191,0.176,0.294,0.273,0.271,0.146,0.090,west,6.2,No
2019/05/24,08:20,0.192,0.175,0.290,0.272,0.270,0.147,0.090,west,7.7,No
2019/05/24,08:30,0.191,0.174,0.290,0.271,0.268,0.147,0.089,west,7.0,No
2019/05/24,08:40,0.190,0.173,0.295,0.271,0.270,0.146,0.090,west-northwest,6.4,No
2019/05/24,08:50,0.191,0.174,0.293,0.273,0.271,0.145,0.090,west,6.6,No
2019/05/24,09:00,0.193,0.173,0.291,0.273,0.271,0.146,0.089,west,8.4,No
2019/05/24,09:10,0.193,0.175,0.292,0.274,0.269,0.146,0.090,west-northwest,9.5,No
2019/05/24,09:20,0.192,0.174,0.296,0.274,0.269,0.146,0.089,west-northwest,7.3,No
2019/05/24,09:30,0.191,0.174,0.292,0.274,0.268,0.146,0.090,west-northwest,8.7,No
2019/05/24,09:40,0.191,0.174,0.292,0.275,0.269,0.146,0.089,west-northwest,9.8,No
2019/05/24,09:50,0.191,0.174,0.292,0.274,0.268,0.147,-,west-northwest,8.6,No
2019/05/24,10:00,0.191,0.174,0.295,0.276,0.270,0.147,-,west,9.8,No
2019/05/24,10:10,0.190,0.174,0.293,0.276,0.270,0.148,-,west,9.8,No
2019/05/24,10:20,0.191,0.175,0.293,0.277,0.270,0.147,-,west,9.2,No
2019/05/24,10:30,0.192,0.174,0.291,0.275,0.269,0.148,-,west,8.2,No
2019/05/24,10:40,0.191,0.175,0.293,0.277,0.271,0.147,-,west-northwest,6.2,No
2019/05/24,10:50,0.192,0.175,0.294,0.276,0.271,0.147,-,northwest,6.6,No
2019/05/24,11:00,0.192,0.174,0.293,0.278,0.271,0.148,-,north-northwest,2.8,No
2019/05/24,11:10,0.192,0.175,0.292,0.276,0.271,0.147,-,north,2.0,No
2019/05/24,11:20,0.194,0.175,0.293,0.276,0.270,0.148,-,north-northeast,2.1,No
2019/05/24,11:30,0.195,0.176,0.292,0.275,0.269,0.147,-,east,2.2,No
2019/05/24,11:40,0.194,0.179,0.293,0.275,0.271,0.148,-,east,3.2,No
2019/05/24,11:50,0.191,0.177,0.294,0.275,0.271,0.148,-,east-southeast,3.6,No
2019/05/24,12:00,0.192,0.176,0.292,0.277,0.274,0.147,-,east-southeast,2.6,No
2019/05/24,12:10,0.191,0.176,0.295,0.275,0.274,0.147,-,east-southeast,3.3,No
2019/05/24,12:20,0.192,0.175,0.292,0.274,0.273,0.147,-,east,3.4,No
2019/05/24,12:30,0.191,0.175,0.292,0.275,0.270,0.148,-,east-northeast,2.9,No
2019/05/24,12:40,0.191,0.175,0.293,0.278,0.270,0.148,-,east-northeast,3.4,No
2019/05/24,12:50,0.194,0.175,0.293,0.278,0.270,0.148,-,east-southeast,3.5,No
2019/05/24,13:00,0.194,0.177,0.293,0.278,0.269,0.147,-,east,2.8,No
2019/05/24,13:10,0.194,0.177,0.293,0.275,0.270,0.147,-,southeast,3.3,No
2019/05/24,13:20,0.192,0.176,0.293,0.275,0.270,0.149,-,southeast,3.0,No
2019/05/24,13:30,0.193,0.176,0.292,0.274,0.275,0.148,-,south-southeast,3.0,No
2019/05/24,13:40,0.195,0.177,0.297,0.278,0.274,0.146,-,south,1.4,No
2019/05/24,13:50,0.193,0.176,0.296,0.279,0.270,0.148,-,south-southeast,3.1,No
2019/05/24,14:00,0.191,0.176,0.295,0.279,0.270,0.147,-,south-southeast,3.6,No
2019/05/24,14:10,0.192,0.177,0.294,0.276,0.270,0.147,-,south,2.5,No
2019/05/24,14:20,0.194,0.176,0.293,0.277,0.268,0.146,-,south,2.1,No
2019/05/24,14:30,0.192,0.176,0.295,0.278,0.273,0.147,-,south-southeast,2.8,No
2019/05/24,14:40,0.192,0.176,0.296,0.278,0.275,0.148,-,south,3.9,No
2019/05/24,14:50,0.195,0.176,0.295,0.277,0.272,0.148,-,south,4.2,No
2019/05/24,15:00,0.193,0.176,0.292,0.278,0.269,0.147,0.091,south,2.7,No
2019/05/24,15:10,0.192,0.176,0.294,0.279,0.275,0.148,0.092,south,3.1,No
2019/05/24,15:20,0.192,0.177,0.297,0.277,0.272,0.148,0.091,south,2.4,No
2019/05/24,15:30,0.195,0.177,0.294,0.281,0.270,0.147,0.091,south,3.5,No
2019/05/24,15:40,0.193,0.177,0.295,0.278,0.275,0.149,0.091,south,4.6,No
2019/05/24,15:50,0.192,0.177,0.299,0.277,0.273,0.148,0.091,south,5.2,No
2019/05/24,16:00,0.190,0.176,0.296,0.280,0.272,0.147,0.091,south,3.0,No
2019/05/24,16:10,0.192,0.175,0.294,0.278,0.271,0.147,0.091,south,4.8,No
2019/05/24,16:20,0.194,0.178,0.294,0.277,0.270,0.147,0.092,south,5.3,No
2019/05/24,16:30,0.193,0.176,0.295,0.278,0.270,0.148,0.090,south-southeast,5.3,No
2019/05/24,16:40,0.192,0.176,0.293,0.275,0.270,0.148,0.092,south,4.5,No
2019/05/24,16:50,0.191,0.178,0.294,0.279,0.270,0.147,0.091,south,4.6,No
2019/05/24,17:00,0.192,0.177,0.297,0.279,0.270,0.147,0.091,south,5.4,No
2019/05/24,17:10,0.195,0.177,0.297,0.275,0.270,0.147,0.092,south,4.8,No
2019/05/24,17:20,0.193,0.178,0.294,0.280,0.268,0.147,0.091,south,5.0,No
2019/05/24,17:30,0.192,0.176,0.296,0.278,0.270,0.148,0.092,south,6.2,No
2019/05/24,17:40,0.195,0.177,0.294,0.277,0.273,0.147,0.091,south,4.9,No
2019/05/24,17:50,0.192,0.178,0.296,0.279,0.275,0.148,0.090,south,4.0,No
2019/05/24,18:00,0.194,0.176,0.298,0.277,0.272,0.148,0.090,south,4.6,No
2019/05/24,18:10,0.195,0.177,0.294,0.278,0.275,0.147,0.091,south,5.3,No
2019/05/24,18:20,0.193,0.176,0.297,0.278,0.276,0.148,0.091,south,4.8,No
2019/05/24,18:30,0.195,0.177,0.295,0.278,0.273,0.148,0.091,south,4.1,No
2019/05/24,18:40,0.194,0.177,0.298,0.281,0.276,0.147,0.091,south,3.4,No
2019/05/24,18:50,0.195,0.177,0.296,0.278,0.273,0.146,0.091,south-southwest,3.5,No
2019/05/24,19:00,0.193,0.177,0.296,0.279,0.275,0.149,0.091,south-southwest,3.1,No
2019/05/24,19:10,0.194,0.176,0.297,0.280,0.271,0.147,0.091,southwest,2.5,No
2019/05/24,19:20,0.193,0.177,0.297,0.279,0.275,0.148,0.092,west,4.5,No
2019/05/24,19:30,0.194,0.176,0.298,0.278,0.271,0.148,0.091,west,5.5,No
2019/05/24,19:40,0.193,0.177,0.296,0.278,0.273,0.148,0.091,west,5.0,No
2019/05/24,19:50,0.195,0.177,0.298,0.279,0.272,0.148,0.091,west,5.1,No
2019/05/24,20:00,0.193,0.177,0.297,0.279,0.275,0.147,0.091,west,5.9,No
2019/05/24,20:10,0.194,0.176,0.296,0.278,0.271,0.148,0.092,west,8.7,No
2019/05/24,20:20,0.195,0.177,0.297,0.279,0.274,0.148,0.091,west,8.4,No
2019/05/24,20:30,0.193,0.177,0.297,0.280,0.273,0.148,0.091,west,8.8,No
2019/05/24,20:40,0.193,0.177,0.297,0.279,0.274,0.148,0.091,west,8.9,No
2019/05/24,20:50,0.195,0.177,0.295,0.279,0.273,0.148,0.091,west,8.5,No
2019/05/24,21:00,0.193,0.177,0.295,0.279,0.273,0.148,0.091,west,8.1,No
2019/05/24,21:10,0.194,0.178,0.295,0.279,0.271,0.147,0.092,west,7.4,No
2019/05/24,21:20,0.193,0.178,0.296,0.278,0.272,0.147,0.092,west,8.1,No
2019/05/24,21:30,0.194,0.176,0.295,0.280,0.273,0.147,0.091,west,8.4,No
2019/05/24,21:40,0.193,0.178,0.297,0.278,0.271,0.147,0.092,west,7.5,No
2019/05/24,21:50,0.195,0.177,0.296,0.279,0.273,0.147,0.091,west,5.9,No
2019/05/24,22:00,0.194,0.178,0.297,0.279,0.272,0.148,0.092,west,6.5,No
2019/05/24,22:10,0.193,0.177,0.296,0.278,0.273,0.150,0.091,west,6.4,No
2019/05/24,22:20,0.193,0.177,0.298,0.280,0.271,0.148,0.090,west,7.0,No
2019/05/24,22:30,0.194,0.176,0.296,0.278,0.273,0.148,0.091,west,7.0,No
2019/05/24,22:40,0.195,0.175,0.297,0.280,0.273,0.148,0.091,west-southwest,7.5,No
2019/05/24,22:50,0.193,0.177,0.297,0.277,0.274,0.148,0.091,west,8.5,No
2019/05/24,23:00,0.194,0.176,0.296,0.280,0.271,0.148,0.091,west,8.9,No
2019/05/24,23:10,0.193,0.177,0.296,0.279,0.273,0.147,0.091,west,7.8,No
2019/05/24,23:20,0.194,0.178,0.297,0.278,0.272,0.148,0.091,west,7.3,No
2019/05/24,23:30,0.193,0.175,0.297,0.279,0.273,0.148,0.091,west,7.3,No
2019/05/24,23:40,0.194,0.177,0.298,0.278,0.273,0.148,0.091,west,8.2,No
2019/05/24,23:50,0.193,0.176,0.296,0.278,0.272,0.148,0.091,west,7.6,No
